Back to catalog

STARLINK-3260

AliveCommunicationsVLEO
NORAD 50205·PAYLOAD·🇺🇸 United States

Launched Dec 18, 2021 from Vandenberg Space Force Base

Loading…

Next Passes (next 24 hours)

TLE

FreshSource: CelesTrak SupGP

Epoch: Sep 14, 2026, 13:05 UTC

1 50205C 21125BB  26257.54562500  .00001256  00000+0  40377-4 0  2577
2 50205  53.1580  76.5372 0001163  96.5231  12.7516 15.31707459    18

Track STARLINK-3260 in real time with AllMySat

Download on the App Store